QPF
0.00 0.01 0.01 0.01 0.01 0.00 0.01 0.01 0.01 0.01 0.01 0.01 0.01 0.00 0.00 0.00 0.00 0.00 0.00 0.00 0.00 0.00 0.00 0.00 0.00 0.00 0.00 0.00 0.00 0.00 0.00 0.00 0.00 0.00 0.00 0.00 0.00 0.00 0.00 0.00 0.00 0.00 0.00 0.00 0.00
0.00 0.01 0.01 0.01 0.01 0.00 0.00 0.00 0.00 0.01 0.01 0.00 0.01 0.01 0.00 0.00 0.00 0.00 0.00 0.00 0.00 0.00 0.00 0.00 0.00 0.00 0.00 0.00 0.00 0.00 0.00 0.00 0.00 0.00 0.00 0.00 0.00 0.00 0.00 0.00 0.00 0.00 0.00 0.00 0.00
0.00 0.00 0.01 0.01 0.01 0.01 0.00 0.00 0.00 0.00 0.00 0.00 0.01 0.00 0.00 0.00 0.00 0.00 0.00 0.00 0.00 0.00 0.00 0.00 0.00 0.00 0.00 0.00 0.00 0.00 0.00 0.00 0.00 0.00 0.00 0.00 0.00 0.00 0.00 0.00 0.00 0.00 0.00 0.00 0.00
0.00 0.00 0.01 0.01 0.01 0.01 0.01 0.00 0.00 0.00 0.00 0.00 0.00 0.00 0.00 0.00 0.00 0.00 0.00 0.00 0.00 0.00 0.00 0.00 0.00 0.00 0.00 0.00 0.00 0.00 0.00 0.00 0.00 0.00 0.00 0.00 0.00 0.00 0.00 0.00 0.00 0.00 0.00 0.00 0.00
0.00 0.00 0.00 0.01 0.01 0.01 0.01 0.00 0.00 0.00 0.00 0.00 0.00 0.00 0.00 0.00 0.00 0.00 0.00 0.00 0.00 0.00 0.00 0.00 0.00 0.00 0.00 0.00 0.00 0.00 0.00 0.00 0.00 0.00 0.00 0.00 0.00 0.00 0.00 0.00 0.00 0.00 0.00 0.00 0.00
0.00 0.00 0.00 0.01 0.01 0.01 0.01 0.00 0.00 0.00 0.00 0.00 0.00 0.00 0.00 0.00 0.00 0.00 0.00 0.00 0.00 0.00 0.00 0.00 0.00 0.00 0.00 0.00 0.00 0.00 0.00 0.00 0.00 0.00 0.00 0.00 0.00 0.00 0.00 0.00 0.00 0.00 0.00 0.00 0.00
0.00 0.00 0.00 0.01 0.01 0.01 0.00 0.00 0.00 0.00 0.00 0.00 0.00 0.00 0.00 0.00 0.00 0.00 0.00 0.00 0.00 0.00 0.00 0.00 0.00 0.00 0.00 0.00 0.00 0.00 0.00 0.00 0.00 0.00 0.00 0.00 0.00 0.00 0.00 0.00 0.00 0.00 0.00 0.00 0.00
0.00 0.00 0.00 0.01 0.00 0.01 0.00 0.00 0.00 0.00 0.00 0.00 0.00 0.00 0.00 0.00 0.00 0.00 0.00 0.00 0.00 0.00 0.00 0.00 0.00 0.00 0.00 0.00 0.00 0.00 0.00 0.00 0.00 0.00 0.00 0.00 0.00 0.00 0.00 0.00 0.00 0.00 0.00 0.00 0.00
0.00 0.00 0.00 0.01 0.00 0.00 0.00 0.00 0.00 0.00 0.00 0.00 0.00 0.00 0.00 0.00 0.00 0.00 0.00 0.00 0.00 0.00 0.00 0.00 0.00 0.00 0.00 0.00 0.00 0.00 0.00 0.00 0.00 0.00 0.00 0.00 0.00 0.00 0.00 0.00 0.00 0.00 0.00 0.00 0.00
0.00 0.00 0.00 0.00 0.00 0.00 0.00 0.00 0.00 0.00 0.00 0.00 0.00 0.00 0.00 0.00 0.00 0.00 0.00 0.00 0.00 0.00 0.00 0.00 0.00 0.00 0.00 0.00 0.00 0.00 0.00 0.00 0.00 0.00 0.00 0.00 0.00 0.00 0.00 0.00 0.00 0.00 0.00 0.00 0.00
0.00 0.00 0.00 0.00 0.00 0.00 0.00 0.00 0.00 0.00 0.00 0.00 0.00 0.00 0.00 0.00 0.00 0.00 0.00 0.00 0.00 0.00 0.00 0.00 0.00 0.00 0.00 0.00 0.00 0.00 0.00 0.00 0.00 0.00 0.00 0.00 0.00 0.00 0.00 0.00 0.00 0.00 0.00 0.00 0.00
0.00 0.00 0.00 0.00 0.00 0.00 0.00 0.00 0.00 0.00 0.00 0.00 0.00 0.00 0.00 0.00 0.00 0.00 0.00 0.00 0.00 0.00 0.00 0.00 0.00 0.00 0.00 0.00 0.00 0.00 0.00 0.00 0.00 0.00 0.00 0.00 0.00 0.00 0.00 0.00 0.00 0.00 0.00 0.00 0.00
0.01 0.00 0.00 0.00 0.01 0.01 0.00 0.00 0.00 0.00 0.00 0.00 0.00 0.00 0.00 0.00 0.00 0.00 0.00 0.00 0.00 0.00 0.00 0.00 0.00 0.00 0.00 0.00 0.00 0.00 0.00 0.00 0.00 0.00 0.00 0.00 0.00 0.00 0.00 0.00 0.00 0.00 0.00 0.00 0.00
0.02 0.01 0.01 0.02 0.02 0.00 0.00 0.00 0.00 0.00 0.00 0.00 0.00 0.00 0.00 0.00 0.00 0.00 0.00 0.00 0.00 0.00 0.00 0.00 0.00 0.00 0.00 0.00 0.00 0.00 0.00 0.00 0.00 0.00 0.00 0.00 0.00 0.00 0.00 0.00 0.00 0.00 0.00 0.00 0.00
0.01 0.00 0.02 0.02 0.00 0.00 0.00 0.00 0.00 0.00 0.00 0.00 0.00 0.00 0.00 0.00 0.00 0.00 0.00 0.00 0.00 0.00 0.00 0.00 0.00 0.00 0.00 0.00 0.00 0.00 0.00 0.00 0.00 0.00 0.00 0.00 0.00 0.00 0.00 0.00 0.00 0.00 0.00 0.00 0.00
0.00 0.00 0.03 0.03 0.01 0.00 0.00 0.00 0.00 0.00 0.00 0.00 0.00 0.00 0.00 0.00 0.00 0.00 0.00 0.00 0.00 0.00 0.00 0.00 0.00 0.00 0.00 0.00 0.00 0.00 0.00 0.00 0.00 0.00 0.00 0.00 0.00 0.00 0.00 0.00 0.00 0.00 0.00 0.00 0.00
0.00 0.01 0.03 0.01 0.01 0.00 0.00 0.00 0.00 0.00 0.00 0.00 0.00 0.00 0.00 0.00 0.00 0.00 0.00 0.00 0.00 0.00 0.00 0.00 0.00 0.00 0.00 0.00 0.00 0.00 0.00 0.00 0.00 0.00 0.00 0.00 0.00 0.00 0.00 0.00 0.00 0.00 0.00 0.00 0.00
0.00 0.01 0.02 0.02 0.01 0.00 0.00 0.00 0.00 0.00 0.00 0.00 0.00 0.00 0.00 0.00 0.00 0.00 0.00 0.00 0.00 0.00 0.00 0.00 0.00 0.00 0.00 0.00 0.00 0.00 0.00 0.00 0.00 0.00 0.00 0.00 0.00 0.00 0.00 0.00 0.00 0.00 0.00 0.00 0.00
0.00 0.00 0.01 0.02 0.03 0.03 0.00 0.00 0.00 0.00 0.00 0.00 0.00 0.00 0.00 0.00 0.00 0.00 0.00 0.00 0.00 0.00 0.00 0.00 0.00 0.00 0.00 0.00 0.00 0.00 0.00 0.00 0.00 0.00 0.00 0.00 0.00 0.00 0.00 0.00 0.00 0.00 0.00 0.00 0.00
0.00 0.00 0.00 0.01 0.04 0.07 0.02 0.00 0.00 0.00 0.00 0.00 0.00 0.00 0.00 0.00 0.00 0.00 0.00 0.00 0.00 0.00 0.00 0.00 0.00 0.00 0.00 0.00 0.00 0.00 0.00 0.00 0.00 0.00 0.00 0.00 0.00 0.00 0.00 0.00 0.00 0.00 0.00 0.00 0.00
0.00 0.00 0.00 0.00 0.03 0.10 0.01 0.00 0.00 0.00 0.00 0.00 0.00 0.00 0.00 0.00 0.00 0.00 0.00 0.00 0.00 0.00 0.00 0.00 0.00 0.00 0.00 0.00 0.00 0.00 0.00 0.00 0.00 0.00 0.00 0.00 0.00 0.00 0.00 0.00 0.00 0.00 0.00 0.00 0.00
0.00 0.00 0.00 0.00 0.02 0.02 0.00 0.00 0.00 0.00 0.00 0.00 0.00 0.00 0.00 0.00 0.00 0.00 0.00 0.00 0.00 0.00 0.00 0.00 0.00 0.00 0.00 0.00 0.00 0.00 0.00 0.00 0.00 0.00 0.00 0.00 0.00 0.00 0.00 0.00 0.00 0.00 0.00 0.00 0.00
0.00 0.00 0.00 0.00 0.00 0.00 0.00 0.00 0.00 0.00 0.00 0.00 0.00 0.00 0.00 0.00 0.00 0.00 0.00 0.00 0.00 0.00 0.00 0.00 0.00 0.00 0.00 0.00 0.00 0.00 0.00 0.00 0.00 0.00 0.00 0.00 0.00 0.00 0.00 0.00 0.00 0.00 0.00 0.00 0.00
0.00 0.00 0.00 0.00 0.00 0.00 0.00 0.00 0.00 0.00 0.00 0.00 0.00 0.00 0.00 0.00 0.00 0.00 0.00 0.00 0.00 0.00 0.00 0.00 0.00 0.00 0.00 0.00 0.00 0.00 0.00 0.00 0.00 0.00 0.00 0.00 0.00 0.00 0.00 0.00 0.00 0.00 0.00 0.00 0.00
0.00 0.00 0.00 0.00 0.00 0.00 0.00 0.00 0.00 0.00 0.00 0.00 0.00 0.00 0.00 0.00 0.00 0.00 0.00 0.00 0.00 0.00 0.00 0.00 0.00 0.00 0.00 0.00 0.00 0.00 0.00 0.00 0.00 0.00 0.00 0.00 0.00 0.00 0.00 0.00 0.00 0.00 0.00 0.00 0.00
0.00 0.00 0.00 0.00 0.00 0.00 0.00 0.00 0.00 0.00 0.00 0.00 0.00 0.00 0.00 0.00 0.00 0.00 0.00 0.00 0.00 0.00 0.00 0.00 0.00 0.00 0.00 0.00 0.00 0.00 0.00 0.00 0.00 0.00 0.00 0.00 0.00 0.00 0.00 0.00 0.00 0.00 0.00 0.00 0.00
0.00 0.00 0.00 0.00 0.00 0.00 0.00 0.01 0.00 0.00 0.00 0.00 0.00 0.00 0.00 0.00 0.00 0.00 0.00 0.00 0.00 0.00 0.00 0.00 0.00 0.00 0.00 0.00 0.00 0.00 0.00 0.00 0.00 0.00 0.00 0.00 0.00 0.00 0.00 0.00 0.00 0.00 0.00 0.00 0.00
MSLP
1011.15 1011.46 1011.94 1012.32 1012.80 1013.22 1013.55 1014.04 1014.70 1015.12 1015.62 1016.17 1016.65 1016.89 1016.82 1017.03 1017.44 1017.50 1016.57 1015.28 1015.14 1015.11 1014.96 1014.84 1014.83 1015.00 1014.95 1015.12 1015.30 1015.09 1014.53 1014.28 1014.41 1014.49 1014.91 1016.00 1015.79 1016.51 1016.63 1016.45 1016.98 1017.27 1017.33 1018.03 1018.67
1010.69 1011.11 1011.64 1011.92 1012.24 1012.85 1013.42 1013.70 1014.12 1014.69 1015.37 1015.98 1016.59 1016.96 1017.06 1017.77 1017.93 1017.14 1015.41 1015.10 1015.01 1014.97 1014.60 1014.42 1014.71 1014.88 1014.85 1015.09 1015.16 1014.72 1014.46 1014.39 1014.57 1014.63 1014.84 1015.60 1015.64 1016.00 1016.27 1016.39 1016.73 1017.30 1018.05 1018.54 1018.89
1010.30 1010.65 1011.33 1011.82 1012.30 1012.66 1013.48 1013.32 1014.01 1014.36 1015.06 1015.66 1016.36 1016.59 1016.79 1016.86 1018.00 1015.20 1014.08 1014.01 1014.62 1014.68 1014.38 1014.43 1014.49 1014.62 1014.70 1014.92 1015.06 1014.93 1014.50 1014.86 1015.16 1015.25 1015.34 1015.53 1015.78 1016.19 1016.08 1016.21 1016.08 1016.36 1017.40 1018.31 1018.68
1010.16 1010.52 1011.27 1011.72 1012.03 1012.74 1013.26 1013.55 1013.66 1014.37 1015.05 1015.52 1015.87 1016.30 1016.11 1016.76 1015.51 1013.48 1013.51 1013.88 1014.28 1014.59 1014.47 1014.49 1014.77 1014.60 1014.55 1014.66 1015.03 1014.89 1015.33 1015.35 1015.60 1015.90 1015.85 1015.76 1015.91 1016.07 1016.26 1016.17 1016.66 1016.79 1017.00 1018.04 1018.44
1009.82 1010.34 1010.98 1011.57 1012.10 1012.59 1012.87 1013.31 1013.59 1014.51 1014.78 1015.28 1015.64 1016.11 1016.13 1015.63 1014.42 1014.07 1013.90 1014.15 1014.50 1014.68 1014.03 1014.01 1014.61 1014.36 1014.16 1014.57 1015.02 1015.11 1015.57 1016.01 1016.22 1016.23 1016.28 1016.29 1016.10 1016.00 1016.08 1016.45 1017.06 1017.36 1017.59 1017.77 1018.16
1009.44 1009.96 1010.48 1011.39 1011.79 1012.17 1012.72 1013.00 1013.80 1014.42 1014.80 1015.26 1015.36 1015.93 1015.36 1014.86 1013.82 1013.81 1014.18 1014.52 1014.23 1014.14 1013.98 1013.89 1013.99 1014.18 1014.46 1014.77 1015.05 1015.54 1015.77 1016.38 1016.61 1016.53 1016.59 1016.45 1016.51 1016.54 1016.15 1016.58 1016.81 1017.20 1017.40 1017.57 1017.85
1008.96 1009.38 1009.97 1011.01 1011.24 1011.98 1012.77 1013.02 1013.67 1014.25 1014.57 1014.80 1015.19 1015.64 1015.20 1013.87 1013.52 1013.64 1014.14 1014.09 1014.01 1013.96 1013.94 1014.26 1014.11 1014.18 1014.44 1015.15 1015.80 1015.94 1016.13 1016.57 1016.79 1016.80 1016.94 1016.89 1016.72 1016.08 1016.21 1016.61 1016.57 1016.76 1017.10 1017.53 1017.76
1008.54 1008.88 1009.76 1010.59 1011.00 1011.88 1012.41 1012.88 1013.51 1014.37 1014.37 1014.56 1015.09 1015.74 1014.17 1013.69 1013.53 1013.61 1013.85 1014.02 1014.17 1013.99 1014.01 1014.25 1014.21 1014.82 1014.84 1015.59 1015.87 1015.81 1016.26 1016.55 1017.05 1017.10 1017.21 1017.14 1016.08 1015.91 1016.43 1016.40 1016.17 1016.32 1016.56 1017.16 1017.44
1008.02 1008.54 1009.53 1010.40 1011.09 1011.73 1012.30 1012.93 1013.82 1014.27 1014.23 1014.72 1015.07 1014.99 1013.92 1013.99 1013.76 1013.46 1013.54 1013.65 1013.88 1014.20 1014.30 1014.37 1014.54 1015.24 1015.51 1015.14 1015.70 1016.04 1015.94 1016.53 1017.36 1017.49 1017.37 1017.03 1016.12 1016.06 1016.35 1016.38 1015.87 1015.97 1016.27 1016.71 1016.82
1007.70 1008.39 1009.09 1010.15 1010.82 1011.72 1012.39 1013.09 1013.77 1014.36 1014.61 1014.84 1014.60 1015.10 1013.70 1013.17 1013.14 1013.26 1013.66 1013.66 1013.67 1014.14 1014.32 1014.66 1014.51 1015.18 1015.28 1014.66 1014.34 1015.35 1015.92 1016.75 1017.03 1017.73 1017.74 1017.23 1016.29 1016.12 1016.20 1016.34 1015.78 1015.86 1015.89 1016.12 1016.44
1007.32 1007.90 1008.71 1009.85 1010.86 1011.52 1012.30 1013.05 1013.92 1014.47 1013.90 1012.83 1012.96 1012.76 1012.69 1013.16 1013.04 1013.21 1013.36 1013.42 1013.78 1014.01 1013.70 1014.53 1014.23 1014.16 1014.34 1014.65 1014.78 1015.03 1015.62 1016.38 1017.49 1018.11 1018.00 1017.29 1016.56 1015.77 1015.91 1015.93 1015.79 1015.40 1015.71 1015.85 1016.14
1007.00 1007.57 1008.61 1009.53 1010.71 1011.53 1011.74 1011.29 1010.92 1011.22 1012.38 1012.60 1012.39 1012.89 1012.83 1012.74 1013.23 1013.43 1013.25 1013.01 1013.37 1013.69 1014.52 1014.72 1014.18 1014.39 1015.20 1015.25 1015.30 1015.53 1015.87 1016.85 1017.88 1018.15 1018.17 1017.43 1016.43 1015.74 1015.59 1015.91 1016.03 1015.82 1015.94 1016.22 1016.29
1006.72 1007.42 1008.40 1009.57 1010.62 1011.29 1011.21 1010.71 1010.84 1010.86 1011.72 1012.50 1012.63 1012.76 1012.54 1012.58 1012.74 1013.08 1013.03 1013.06 1013.54 1014.23 1014.22 1013.91 1014.90 1015.37 1015.40 1015.74 1015.65 1016.06 1016.01 1016.91 1017.33 1018.18 1018.29 1017.77 1016.07 1015.51 1015.96 1016.07 1016.44 1016.60 1016.92 1016.96 1017.04
1006.45 1007.22 1008.26 1009.48 1010.97 1010.75 1010.86 1010.23 1010.39 1010.92 1011.48 1012.54 1012.63 1012.48 1012.24 1012.24 1013.15 1013.35 1013.14 1013.15 1013.70 1013.93 1014.26 1014.98 1016.08 1015.91 1015.75 1015.94 1015.78 1016.51 1016.70 1017.14 1017.62 1017.48 1017.98 1018.08 1016.18 1015.27 1015.72 1016.04 1016.57 1016.96 1017.33 1017.44 1017.67
1006.95 1007.19 1008.27 1008.96 1009.00 1009.89 1009.48 1010.18 1010.69 1010.88 1011.44 1011.93 1012.29 1012.20 1012.00 1012.55 1013.10 1013.37 1013.52 1013.17 1013.34 1013.81 1014.53 1015.56 1016.03 1016.11 1016.22 1015.97 1016.36 1017.27 1017.28 1017.65 1017.99 1017.94 1018.02 1018.01 1017.40 1015.33 1015.81 1016.15 1016.55 1017.18 1017.79 1017.93 1018.21
1007.40 1007.65 1008.00 1008.62 1008.71 1009.40 1009.90 1010.28 1010.70 1011.58 1011.12 1011.84 1012.04 1011.84 1012.10 1012.91 1013.36 1013.64 1013.68 1013.58 1013.83 1014.15 1015.01 1015.94 1016.16 1016.27 1016.60 1016.97 1016.87 1017.77 1017.68 1018.29 1018.44 1018.33 1018.26 1018.23 1017.85 1015.59 1015.52 1016.01 1016.88 1017.60 1018.06 1018.34 1018.70
1008.05 1008.12 1008.46 1008.56 1008.74 1009.47 1009.80 1010.27 1011.25 1011.29 1011.07 1011.93 1011.62 1011.76 1011.81 1012.93 1013.56 1013.31 1013.25 1013.40 1013.03 1013.92 1014.91 1016.12 1016.57 1016.85 1016.77 1017.31 1018.05 1017.56 1017.05 1018.26 1018.77 1018.80 1018.65 1019.36 1018.66 1015.79 1016.22 1016.63 1017.34 1018.06 1018.43 1018.78 1019.05
1008.66 1008.41 1008.67 1009.24 1009.32 1009.36 1009.87 1010.54 1010.36 1009.98 1010.42 1010.88 1010.87 1011.36 1011.85 1012.57 1013.53 1013.47 1013.15 1013.09 1013.08 1012.88 1014.20 1015.06 1016.98 1016.91 1016.79 1016.54 1016.59 1017.21 1016.62 1016.83 1017.76 1018.97 1019.04 1020.18 1018.02 1016.20 1016.90 1017.28 1017.96 1018.54 1019.07 1019.34 1019.44
1009.07 1008.98 1009.23 1009.77 1009.61 1009.63 1010.01 1009.84 1008.29 1008.61 1009.28 1009.99 1011.18 1011.24 1012.22 1012.29 1012.66 1013.03 1012.54 1012.16 1012.36 1012.44 1012.74 1014.58 1016.17 1016.89 1017.06 1016.82 1016.68 1017.25 1017.13 1017.27 1018.02 1020.14 1019.29 1018.32 1017.21 1016.44 1017.07 1017.61 1018.34 1018.68 1019.09 1019.49 1019.78
1009.28 1009.59 1009.87 1010.32 1009.74 1009.84 1009.83 1008.23 1008.22 1008.34 1008.75 1009.10 1009.67 1010.14 1010.72 1011.48 1012.08 1012.23 1012.27 1011.82 1012.27 1012.43 1012.50 1013.53 1015.61 1017.10 1017.23 1017.18 1017.26 1016.48 1016.53 1017.26 1017.46 1018.28 1018.32 1017.55 1017.03 1015.71 1016.66 1017.28 1018.27 1018.69 1019.14 1019.84 1020.21
1010.03 1010.28 1010.46 1009.54 1009.76 1009.96 1008.55 1008.42 1008.56 1008.40 1008.29 1008.45 1008.88 1009.74 1010.05 1010.72 1010.98 1011.50 1011.47 1011.76 1011.79 1012.57 1012.77 1013.27 1014.23 1017.42 1017.75 1017.29 1016.64 1016.93 1016.64 1016.78 1016.60 1016.86 1016.80 1016.67 1015.55 1015.31 1015.45 1016.33 1017.52 1018.44 1019.09 1019.84 1020.38
1010.12 1010.98 1011.32 1010.35 1009.83 1009.77 1008.81 1007.82 1008.43 1008.66 1008.52 1008.11 1008.16 1008.87 1009.48 1010.04 1010.69 1011.04 1011.07 1010.86 1011.10 1011.45 1012.48 1013.32 1014.79 1016.73 1017.16 1017.55 1017.31 1016.50 1016.04 1015.80 1015.70 1016.68 1016.92 1016.66 1015.62 1015.69 1015.78 1016.39 1017.50 1018.49 1019.43 1020.16 1020.81
1010.64 1010.95 1011.09 1010.49 1010.23 1009.94 1009.43 1008.85 1008.92 1008.80 1008.69 1008.48 1008.49 1008.66 1009.18 1009.59 1010.63 1011.00 1011.09 1011.31 1011.35 1011.57 1011.93 1012.94 1014.30 1016.46 1017.61 1017.68 1017.36 1016.64 1016.20 1015.53 1015.49 1015.85 1016.01 1016.10 1015.39 1016.11 1016.42 1016.82 1017.64 1018.48 1019.84 1020.33 1021.05
1011.00 1011.10 1011.22 1011.09 1010.80 1010.32 1009.85 1008.92 1009.06 1009.05 1008.60 1008.53 1008.66 1008.88 1009.32 1009.99 1010.26 1010.91 1011.82 1012.22 1012.05 1011.94 1012.02 1012.42 1013.80 1014.09 1014.18 1013.82 1014.65 1015.88 1015.39 1015.35 1015.05 1015.17 1014.68 1014.28 1014.72 1015.67 1016.28 1016.51 1017.40 1018.38 1019.35 1020.38 1021.00
1011.04 1011.39 1011.46 1011.25 1011.34 1010.84 1010.06 1009.48 1009.04 1009.00 1009.02 1008.94 1009.15 1008.97 1008.89 1010.07 1010.74 1011.16 1011.65 1012.67 1012.95 1012.65 1012.63 1012.94 1014.07 1014.30 1014.33 1014.28 1014.37 1014.24 1014.48 1014.70 1014.50 1013.35 1013.71 1012.48 1013.56 1014.04 1014.96 1015.81 1016.55 1017.85 1019.27 1020.28 1021.05
1010.94 1011.49 1011.82 1011.80 1011.44 1011.19 1010.60 1010.02 1009.47 1008.97 1009.10 1009.28 1009.20 1009.34 1009.38 1009.80 1009.82 1010.52 1010.88 1011.49 1011.93 1013.23 1013.04 1013.23 1013.76 1014.24 1015.06 1015.17 1014.90 1014.60 1014.31 1013.84 1013.23 1013.00 1013.17 1013.09 1013.30 1013.28 1014.45 1016.12 1017.13 1017.88 1018.93 1019.84 1020.80
1011.32 1011.53 1011.30 1011.64 1011.34 1011.08 1010.65 1010.40 1010.29 1010.22 1010.15 1009.88 1009.81 1009.92 1010.29 1010.66 1010.74 1010.79 1010.44 1010.60 1010.69 1011.63 1012.66 1013.17 1013.75 1014.73 1015.34 1015.60 1015.38 1015.07 1012.72 1012.93 1012.73 1012.40 1012.27 1012.68 1012.37 1013.76 1014.91 1015.84 1016.27 1017.23 1018.44 1019.53 1020.56
Thickness
5563 5566 5569 5572 5575 5578 5582 5585 5587 5591 5594 5593 5595 5601 5608 5614 5616 5624 5636 5653 5663 5674 5682 5691 5694 5697 5704 5700 5703 5707 5698 5695 5698 5703 5709 5705 5711 5709 5715 5716 5713 5715 5717 5714 5713
5559 5562 5565 5569 5574 5575 5576 5581 5585 5588 5588 5588 5590 5593 5600 5600 5607 5619 5640 5651 5660 5672 5682 5686 5684 5692 5694 5693 5698 5703 5698 5701 5711 5715 5714 5710 5715 5714 5714 5714 5714 5713 5712 5711 5712
5554 5558 5560 5563 5567 5571 5569 5579 5580 5585 5584 5586 5587 5592 5599 5603 5599 5623 5644 5654 5660 5672 5680 5684 5687 5691 5688 5693 5694 5694 5701 5704 5705 5711 5714 5712 5711 5714 5715 5710 5723 5721 5717 5712 5711
5548 5553 5553 5558 5563 5565 5567 5570 5578 5578 5577 5581 5586 5589 5599 5599 5601 5639 5646 5653 5661 5668 5675 5677 5676 5680 5683 5685 5691 5691 5693 5702 5703 5703 5706 5709 5714 5712 5713 5719 5719 5724 5725 5716 5712
5543 5547 5550 5553 5556 5561 5567 5568 5573 5570 5574 5576 5584 5586 5594 5600 5614 5630 5638 5647 5656 5663 5673 5678 5672 5682 5683 5688 5689 5691 5692 5694 5698 5701 5703 5705 5708 5713 5714 5719 5716 5716 5716 5717 5716
5540 5543 5547 5548 5555 5560 5563 5567 5566 5566 5568 5571 5579 5581 5592 5593 5618 5628 5636 5645 5656 5664 5669 5678 5680 5686 5680 5684 5687 5686 5690 5688 5692 5697 5699 5703 5703 5706 5715 5715 5715 5714 5716 5718 5718
5535 5540 5544 5545 5554 5557 5558 5564 5562 5562 5564 5568 5572 5576 5584 5598 5617 5629 5633 5644 5654 5663 5665 5672 5680 5682 5684 5675 5678 5679 5679 5683 5688 5693 5694 5698 5697 5705 5715 5712 5714 5715 5716 5714 5716
5533 5538 5540 5544 5550 5552 5556 5559 5558 5555 5561 5562 5564 5565 5585 5603 5615 5627 5633 5639 5648 5659 5665 5668 5676 5670 5677 5672 5673 5674 5677 5675 5679 5686 5689 5694 5700 5709 5708 5712 5716 5717 5718 5713 5715
5529 5531 5534 5538 5544 5547 5552 5552 5549 5552 5556 5557 5563 5568 5585 5598 5609 5624 5632 5636 5644 5650 5658 5663 5666 5661 5664 5669 5664 5663 5669 5671 5670 5678 5683 5691 5699 5705 5705 5707 5715 5717 5716 5714 5718
5526 5526 5532 5536 5540 5542 5544 5543 5545 5547 5550 5554 5560 5564 5587 5602 5614 5620 5626 5633 5638 5642 5648 5650 5658 5647 5655 5667 5660 5655 5665 5661 5675 5673 5674 5681 5691 5702 5704 5703 5713 5715 5719 5718 5718
5524 5525 5532 5531 5533 5537 5539 5539 5540 5543 5555 5574 5579 5586 5594 5600 5612 5616 5624 5630 5631 5635 5641 5640 5650 5651 5665 5669 5671 5675 5670 5669 5663 5661 5668 5677 5684 5699 5707 5705 5710 5718 5719 5720 5719
5519 5524 5526 5527 5529 5531 5540 5555 5567 5575 5562 5568 5579 5582 5592 5600 5600 5607 5620 5625 5627 5627 5626 5635 5644 5658 5650 5649 5657 5662 5664 5658 5652 5656 5661 5668 5681 5696 5703 5701 5703 5711 5715 5714 5715
5517 5519 5520 5521 5525 5530 5542 5554 5559 5566 5560 5562 5571 5578 5589 5597 5601 5608 5618 5619 5622 5616 5627 5641 5640 5638 5644 5644 5652 5649 5662 5651 5662 5651 5653 5659 5683 5690 5687 5691 5692 5696 5697 5701 5703
5513 5515 5517 5517 5518 5530 5539 5551 5555 5558 5554 5552 5563 5575 5585 5594 5590 5600 5610 5618 5614 5619 5625 5630 5618 5631 5639 5642 5654 5641 5648 5650 5645 5659 5657 5647 5673 5687 5684 5689 5687 5689 5690 5693 5694
5502 5511 5511 5518 5531 5533 5547 5544 5547 5553 5535 5552 5556 5572 5580 5587 5591 5593 5602 5614 5615 5616 5621 5618 5614 5622 5629 5644 5642 5639 5639 5639 5638 5643 5644 5646 5655 5687 5674 5680 5684 5685 5682 5685 5685
5493 5501 5507 5514 5527 5532 5532 5536 5539 5526 5534 5543 5552 5564 5573 5576 5580 5586 5595 5603 5608 5609 5608 5605 5615 5623 5627 5618 5628 5621 5629 5625 5626 5632 5631 5641 5643 5677 5681 5680 5677 5676 5676 5676 5676
5482 5491 5499 5510 5524 5521 5525 5527 5517 5515 5544 5540 5554 5563 5577 5570 5571 5584 5593 5595 5607 5597 5597 5594 5601 5608 5615 5613 5610 5623 5636 5610 5610 5613 5626 5610 5621 5677 5669 5670 5669 5668 5667 5667 5668
5471 5483 5491 5497 5505 5512 5519 5519 5519 5538 5549 5550 5559 5565 5570 5569 5564 5575 5584 5590 5596 5608 5604 5603 5589 5601 5609 5620 5625 5625 5636 5626 5609 5606 5625 5592 5627 5667 5655 5656 5655 5656 5654 5655 5658
5461 5471 5479 5486 5494 5504 5511 5511 5542 5548 5554 5555 5555 5561 5552 5561 5570 5573 5587 5602 5608 5610 5615 5601 5595 5595 5601 5609 5622 5614 5615 5616 5595 5535 5604 5625 5636 5652 5644 5646 5646 5648 5650 5649 5648
5453 5461 5469 5473 5486 5496 5507 5531 5541 5545 5547 5559 5559 5566 5565 5567 5571 5574 5578 5599 5599 5601 5609 5610 5591 5582 5592 5600 5601 5616 5616 5608 5606 5591 5599 5616 5620 5660 5640 5641 5639 5640 5642 5637 5636
5443 5453 5458 5476 5482 5491 5510 5527 5530 5538 5548 5556 5558 5557 5571 5567 5580 5576 5584 5590 5602 5593 5601 5605 5602 5572 5577 5590 5604 5600 5606 5603 5615 5611 5612 5611 5637 5650 5652 5645 5639 5637 5635 5632 5629
5436 5446 5441 5460 5480 5479 5508 5528 5523 5526 5536 5551 5560 5561 5565 5567 5569 5572 5577 5606 5599 5603 5598 5595 5583 5572 5583 5578 5582 5594 5609 5614 5616 5593 5593 5600 5632 5626 5641 5639 5635 5627 5620 5618 5616
5425 5434 5436 5450 5470 5472 5487 5512 5515 5520 5530 5541 5550 5557 5559 5565 5560 5567 5576 5579 5583 5593 5594 5589 5575 5555 5559 5570 5571 5586 5592 5605 5602 5596 5584 5601 5635 5614 5620 5623 5620 5616 5608 5605 5601
5416 5429 5431 5434 5439 5464 5474 5506 5511 5511 5525 5535 5541 5549 5553 5552 5558 5561 5561 5559 5567 5579 5580 5585 5564 5582 5591 5613 5606 5586 5591 5593 5607 5593 5604 5611 5621 5611 5610 5614 5609 5604 5600 5595 5592
5404 5416 5420 5443 5443 5448 5469 5479 5509 5509 5512 5523 5529 5542 5553 5546 5548 5548 5551 5545 5551 5560 5565 5570 5557 5569 5580 5583 5587 5595 5588 5584 5591 5619 5599 5636 5618 5620 5615 5609 5606 5600 5590 5583 5577
5398 5408 5409 5418 5427 5443 5450 5462 5480 5507 5510 5518 5529 5534 5539 5545 5558 5552 5553 5554 5559 5546 5556 5553 5551 5565 5552 5559 5566 5573 5582 5585 5597 5606 5600 5605 5607 5627 5615 5598 5591 5588 5580 5576 5569
5377 5388 5407 5410 5419 5439 5448 5458 5465 5472 5483 5504 5515 5521 5526 5523 5527 5534 5551 5557 5562 5556 5552 5551 5540 5543 5556 5540 5549 5546 5581 5586 5594 5603 5606 5592 5621 5602 5593 5584 5588 5583 5573 5566 5559